Regional Weather Roundup
Issued by NWS

Home | Current Version | Previous Version | Graphics & Text | Print | Product List | Glossary On
Versions: 1 2 3 4 5 6 7 8 9 10 11 12 13 14 15 16 17 18 19 20 21 22 23 24 25 26 27 28 29 30 31 32 33 34 35 36 37 38 39 40 41 42 43 44 45 46 47 48 49 50
000
ASUS45 KABQ 192101
RWRNM
WEATHER ROUNDUP FOR NEW MEXICO
NATIONAL WEATHER SERVICE ALBUQUERQUE NM
300 PM MDT SAT APR 19 2014

NOTE: "FAIR" MEANS FEW OR NO CLOUDS BELOW 12,000 FEET AGL WITH NO
       SIGNIFICANT WEATHER OR OBSTRUCTIONS TO VISION.

      THIS PRODUCT IS RELEASED AS TWO VERSIONS.  ONE VERSION NEAR
      THE TOP OF THE HOUR CONTAINING PRELIMINARY DATA FROM ALBUQUERQUE
      AND OTHER STATIONS.  A FINAL VERSION WITH ADDITIONAL DATA IS
      ISSUED ABOUT 10 MINUTES AFTER THE HOUR.

NMZ501-503-504-510>518-192200-
NORTHWEST PLATEAU/NORTHCENTRAL MOUNTAINS

CITY           SKY/WX    TMP DP  RH WIND       PRES   REMARKS
FARMINGTON     MOSUNNY   68  33  27 VRB6      30.05F
LOS ALAMOS     CLOUDY    57  34  42 S10G17    30.13F
SANTA FE       CLOUDY    61  35  37 SW13      30.09F
TAOS           CLOUDY    61  27  27 SW9       30.12F
ANGEL FIRE     MOCLDY    57  30  35 W14       30.16F

$$
NMZ402-403-502-505>509-192200-
WESTCENTRAL MOUNTAINS/SOUTHWEST MOUNTAINS

CITY           SKY/WX    TMP DP  RH WIND       PRES   REMARKS
GALLUP         CLOUDY    62  33  33 NW16      30.11R
SILVER CITY    PTSUNNY   66  39  37 W5        30.08F

$$
NMZ407-409-411-412-192200-
SOUTHERN DESERTS

CITY           SKY/WX    TMP DP  RH WIND       PRES   REMARKS
DEMING         PTSUNNY   69  41  36 VRB3      30.02F
LAS CRUCES     MOSUNNY   69  39  33 W5        30.05F
HOLLOMAN AFB   PTSUNNY   68  47  47 NE8       30.03F
T OR C         SUNNY     64  45  49 N10       30.06F

$$
NMZ519>523-192200-
CENTRAL VALLEYS/CENTRAL HIGHLANDS

CITY           SKY/WX    TMP DP  RH WIND       PRES   REMARKS
ALBUQUERQUE    CLOUDY    56  43  61 S14       30.11F
DOUBLE EAGLE   CLOUDY    55  45  67 SE17      30.12F
CLINES CORNERS LGT RAIN  45  42  89 SW13      30.17F
BELEN          FAIR      57  47  69 S9        30.10F
SOCORRO        NOT AVBL

$$
NMZ524>526-539-540-192200-
SOUTHCENTRAL MOUNTAINS

CITY           SKY/WX    TMP DP  RH WIND       PRES   REMARKS
RUIDOSO        NOT AVBL

$$
NMZ527>531-192200-
NORTHEAST HIGHLANDS/NORTHEAST PLAINS

CITY           SKY/WX    TMP DP  RH WIND       PRES   REMARKS
LAS VEGAS      LGT RAIN  53  43  68 S35G43    30.12R
RATON          PTSUNNY   69  28  21 S17G24    30.01F
CLAYTON        PTSUNNY   72  38  29 S26G35    30.00F

$$
NMZ532>537-192200-
EASTCENTRAL PLAINS

CITY           SKY/WX    TMP DP  RH WIND       PRES   REMARKS
TUCUMCARI      CLOUDY    71  45  39 SW26G37   30.05S
CANNON AFB     NOT AVBL
CLOVIS AIRPORT CLOUDY    55  50  82 S22G28    30.16R

$$
NMZ028-029-538-192200-
SOUTHEAST PLAINS

CITY           SKY/WX    TMP DP  RH WIND       PRES   REMARKS
ROSWELL        CLOUDY    61  56  83 NW3       30.10S THUNDER
CARLSBAD       SUNNY     68  54  60 NE9       30.03F
HOBBS          MOSUNNY   57  57 100 N16       30.08F


$$



USA.gov is the U.S. government's official web portal to all federal, state and local government web resources and services.